| time (UTC) | temp C | wind direction | speed KPH | gust KPH | rain 1hr cm | rain 24hr cm | rain mn cm | humidity % | barometer mb |
| 20260504110553 | 3 | 0 | 0.0 | 0.0 | 0.00 | 0.00 | 0.00 | 88 | 1013.9 |
| 20260504100552 | 2 | 0 | 0.0 | 0.0 | 0.00 | 0.00 | 0.00 | 88 | 1014.1 |
| 20260504081607 | 4 | 0 | 0.0 | 0.0 | 0.00 | 0.00 | 0.00 | 81 | 1014.4 |
| 20260504081050 | 4 | 0 | 0.0 | 0.0 | 0.00 | 0.00 | 0.00 | 81 | 1014.4 |
| 20260504080551 | 3 | 0 | 0.0 | 0.0 | 0.00 | 0.00 | 0.00 | 81 | 1014.4 |
| 20260504060115 | 7 | 0 | 0.0 | 0.0 | 0.00 | 0.00 | 0.00 | 68 | 1014.5 |
| 20260504050550 | 6 | 184 | 0.0 | 1.6 | 0.00 | 0.00 | 0.00 | 70 | 1014.7 |
| 20260504050117 | 7 | 0 | 0.0 | 0.0 | 0.00 | 0.00 | 0.00 | 70 | 1014.8 |
| 20260504045549 | 7 | 0 | 0.0 | 0.0 | 0.00 | 0.00 | 0.00 | 69 | 1014.8 |
| 20260504045048 | 7 | 0 | 0.0 | 0.0 | 0.00 | 0.00 | 0.00 | 68 | 1014.7 |
| 20260504044553 | 7 | 0 | 0.0 | 0.0 | 0.00 | 0.00 | 0.00 | 69 | 1014.7 |
| 20260504044054 | 7 | 0 | 0.0 | 0.0 | 0.00 | 0.00 | 0.00 | 69 | 1014.6 |
| 20260504043551 | 7 | 0 | 0.0 | 0.0 | 0.00 | 0.00 | 0.00 | 67 | 1014.6 |
| 20260504043106 | 7 | 0 | 0.0 | 0.0 | 0.00 | 0.00 | 0.00 | 68 | 1014.5 |
| 20260504042550 | 7 | 0 | 0.0 | 0.0 | 0.00 | 0.00 | 0.00 | 67 | 1014.6 |
| 20260504042051 | 7 | 0 | 0.0 | 0.0 | 0.00 | 0.00 | 0.00 | 68 | 1014.5 |
| 20260504041550 | 7 | 0 | 0.0 | 0.0 | 0.00 | 0.00 | 0.00 | 68 | 1014.4 |
| 20260504041050 | 7 | 0 | 0.0 | 0.0 | 0.00 | 0.00 | 0.00 | 67 | 1014.3 |
| 20260504040550 | 7 | 0 | 0.0 | 0.0 | 0.00 | 0.00 | 0.00 | 67 | 1014.3 |
| 20260504040108 | 7 | 0 | 0.0 | 1.6 | 0.00 | 0.00 | 0.00 | 67 | 1014.4 |
| 20260504035551 | 7 | 0 | 0.0 | 1.6 | 0.00 | 0.00 | 0.00 | 67 | 1014.3 |
| 20260504035051 | 7 | 0 | 0.0 | 1.6 | 0.00 | 0.00 | 0.00 | 66 | 1014.3 |
| 20260504034551 | 8 | 0 | 0.0 | 1.6 | 0.00 | 0.00 | 0.00 | 66 | 1014.3 |
| 20260504034048 | 8 | 0 | 0.0 | 1.6 | 0.00 | 0.00 | 0.00 | 65 | 1014.3 |
| 20260504033548 | 8 | 0 | 0.0 | 1.6 | 0.00 | 0.00 | 0.00 | 65 | 1014.3 |
| 20260504033057 | 8 | 0 | 0.0 | 1.6 | 0.00 | 0.00 | 0.00 | 65 | 1014.3 |
| 20260504032551 | 7 | 0 | 0.0 | 1.6 | 0.00 | 0.00 | 0.00 | 66 | 1014.2 |
| 20260504032052 | 7 | 0 | 0.0 | 1.6 | 0.00 | 0.00 | 0.00 | 67 | 1014.3 |
| 20260504031604 | 7 | 0 | 0.0 | 1.6 | 0.00 | 0.00 | 0.00 | 66 | 1014.2 |
| 20260504031050 | 7 | 0 | 0.0 | 1.6 | 0.00 | 0.00 | 0.00 | 65 | 1014.1 |
| 20260504030551 | 8 | 0 | 0.0 | 1.6 | 0.00 | 0.00 | 0.00 | 65 | 1014.2 |
| 20260504030056 | 7 | 0 | 0.0 | 1.6 | 0.00 | 0.00 | 0.00 | 65 | 1014.1 |
| 20260504025551 | 7 | 0 | 0.0 | 1.6 | 0.00 | 0.00 | 0.00 | 65 | 1014.1 |
| 20260504025050 | 7 | 0 | 0.0 | 1.6 | 0.00 | 0.00 | 0.00 | 65 | 1014.1 |
| 20260504024553 | 8 | 0 | 0.0 | 1.6 | 0.00 | 0.00 | 0.00 | 66 | 1014.0 |
| 20260504024048 | 8 | 0 | 0.0 | 1.6 | 0.00 | 0.00 | 0.00 | 64 | 1014.0 |
| 20260504023548 | 8 | 0 | 0.0 | 0.0 | 0.00 | 0.00 | 0.00 | 64 | 1014.0 |
| 20260504023054 | 8 | 0 | 0.0 | 0.0 | 0.00 | 0.00 | 0.00 | 63 | 1014.0 |
| 20260504022551 | 8 | 0 | 0.0 | 1.6 | 0.00 | 0.00 | 0.00 | 62 | 1014.1 |
| 20260504022050 | 8 | 0 | 0.0 | 1.6 | 0.00 | 0.00 | 0.00 | 62 | 1014.1 |
| 20260504021555 | 8 | 0 | 0.0 | 1.6 | 0.00 | 0.00 | 0.00 | 62 | 1014.2 |
| 20260504021050 | 8 | 0 | 0.0 | 1.6 | 0.00 | 0.00 | 0.00 | 62 | 1014.2 |
| 20260504020550 | 8 | 0 | 0.0 | 1.6 | 0.00 | 0.00 | 0.00 | 62 | 1014.2 |
| 20260504020057 | 8 | 0 | 0.0 | 1.6 | 0.00 | 0.00 | 0.00 | 62 | 1014.0 |
| 20260504015551 | 8 | 0 | 0.0 | 1.6 | 0.00 | 0.00 | 0.00 | 61 | 1014.1 |
| 20260504015051 | 8 | 0 | 0.0 | 0.0 | 0.00 | 0.00 | 0.00 | 62 | 1014.1 |
| 20260504014601 | 9 | 0 | 0.0 | 0.0 | 0.00 | 0.00 | 0.00 | 60 | 1014.0 |
| 20260504014050 | 9 | 0 | 0.0 | 0.0 | 0.00 | 0.00 | 0.00 | 61 | 1014.0 |
| 20260504013551 | 9 | 0 | 0.0 | 0.0 | 0.00 | 0.00 | 0.00 | 60 | 1013.9 |
| 20260504013112 | 9 | 0 | 0.0 | 0.0 | 0.00 | 0.00 | 0.00 | 59 | 1013.9 |
| 20260504012552 | 10 | 0 | 0.0 | 0.0 | 0.00 | 0.00 | 0.00 | 60 | 1013.8 |
| 20260504012050 | 10 | 0 | 0.0 | 0.0 | 0.00 | 0.00 | 0.00 | 57 | 1013.8 |
| 20260504011554 | 10 | 0 | 0.0 | 1.6 | 0.00 | 0.00 | 0.00 | 57 | 1013.8 |
| 20260504011051 | 10 | 0 | 0.0 | 1.6 | 0.00 | 0.00 | 0.00 | 56 | 1013.7 |
| 20260504010551 | 10 | 0 | 0.0 | 1.6 | 0.00 | 0.00 | 0.00 | 56 | 1013.7 |
| 20260504010111 | 10 | 0 | 0.0 | 0.0 | 0.00 | 0.00 | 0.00 | 56 | 1013.7 |
| 20260504005549 | 11 | 0 | 0.0 | 0.0 | 0.00 | 0.00 | 0.00 | 53 | 1013.7 |
| 20260504005051 | 11 | 0 | 0.0 | 0.0 | 0.00 | 0.00 | 0.00 | 52 | 1013.6 |
| 20260504004550 | 11 | 0 | 0.0 | 0.0 | 0.00 | 0.00 | 0.00 | 50 | 1013.6 |
| 20260504004053 | 12 | 0 | 0.0 | 0.0 | 0.00 | 0.00 | 0.00 | 49 | 1013.5 |
| 20260504003550 | 12 | 0 | 0.0 | 1.6 | 0.00 | 0.00 | 0.00 | 49 | 1013.5 |
| 20260504003053 | 12 | 0 | 0.0 | 1.6 | 0.00 | 0.00 | 0.00 | 47 | 1013.5 |
| 20260504002550 | 12 | 0 | 0.0 | 1.6 | 0.00 | 0.00 | 0.00 | 46 | 1013.4 |
| 20260504002050 | 13 | 284 | 0.0 | 1.6 | 0.00 | 0.00 | 0.00 | 46 | 1013.4 |
| 20260504001559 | 13 | 0 | 0.0 | 1.6 | 0.00 | 0.00 | 0.00 | 45 | 1013.2 |
| 20260504001048 | 13 | 279 | 0.0 | 3.2 | 0.00 | 0.00 | 0.00 | 44 | 1013.2 |
| 20260504000550 | 13 | 0 | 0.0 | 3.2 | 0.00 | 0.00 | 0.00 | 45 | 1013.1 |
| 20260504000055 | 13 | 0 | 0.0 | 3.2 | 0.00 | 0.00 | 0.00 | 44 | 1013.1 |
| 20260503235551 | 13 | 284 | 0.0 | 3.2 | 0.00 | 0.00 | 0.00 | 43 | 1013.1 |
| 20260503235048 | 14 | 0 | 0.0 | 9.7 | 0.00 | 0.00 | 0.00 | 44 | 1012.8 |
| 20260503234555 | 14 | 0 | 0.0 | 9.7 | 0.00 | 0.00 | 0.00 | 43 | 1012.9 |
| 20260503234053 | 14 | 0 | 0.0 | 11.3 | 0.00 | 0.00 | 0.00 | 42 | 1012.9 |
| 20260503233551 | 14 | 0 | 0.0 | 11.3 | 0.00 | 0.00 | 0.00 | 41 | 1012.8 |
| 20260503233100 | 15 | 0 | 0.0 | 19.3 | 0.00 | 0.00 | 0.00 | 42 | 1012.8 |
| 20260503232550 | 15 | 0 | 0.0 | 19.3 | 0.00 | 0.00 | 0.00 | 41 | 1012.7 |
| 20260503232050 | 15 | 309 | 1.6 | 12.9 | 0.00 | 0.00 | 0.00 | 40 | 1012.8 |
| 20260503231555 | 15 | 284 | 0.0 | 12.9 | 0.00 | 0.00 | 0.00 | 41 | 1012.7 |
| 20260503231050 | 15 | 0 | 0.0 | 12.9 | 0.00 | 0.00 | 0.00 | 42 | 1012.8 |
| 20260503230550 | 15 | 265 | 0.0 | 19.3 | 0.00 | 0.00 | 0.00 | 42 | 1012.8 |
| 20260503230058 | 15 | 251 | 1.6 | 19.3 | 0.00 | 0.00 | 0.00 | 41 | 1012.8 |
| 20260503225552 | 15 | 0 | 0.0 | 12.9 | 0.00 | 0.00 | 0.00 | 40 | 1012.8 |
| 20260503225047 | 15 | 223 | 1.6 | 12.9 | 0.00 | 0.00 | 0.00 | 40 | 1012.8 |
| 20260503224555 | 15 | 0 | 1.6 | 6.4 | 0.00 | 0.00 | 0.00 | 40 | 1012.7 |
| 20260503224051 | 15 | 0 | 0.0 | 12.9 | 0.00 | 0.00 | 0.00 | 39 | 1012.8 |
| 20260503223551 | 15 | 296 | 0.0 | 12.9 | 0.00 | 0.00 | 0.00 | 39 | 1012.8 |
| 20260503223058 | 15 | 5 | 0.0 | 22.5 | 0.00 | 0.00 | 0.00 | 40 | 1012.8 |
| 20260503222548 | 15 | 0 | 0.0 | 22.5 | 0.00 | 0.00 | 0.00 | 39 | 1012.8 |
| 20260503222050 | 15 | 0 | 3.2 | 22.5 | 0.00 | 0.00 | 0.00 | 38 | 1012.8 |
| 20260503221559 | 15 | 298 | 0.0 | 12.9 | 0.00 | 0.00 | 0.00 | 41 | 1012.7 |
| 20260503221052 | 15 | 0 | 0.0 | 19.3 | 0.00 | 0.00 | 0.00 | 40 | 1012.7 |
| 20260503220552 | 15 | 301 | 0.0 | 19.3 | 0.00 | 0.00 | 0.00 | 40 | 1012.7 |
| 20260503215552 | 15 | 333 | 1.6 | 16.1 | 0.00 | 0.00 | 0.00 | 38 | 1012.7 |
| 20260503215051 | 15 | 256 | 3.2 | 16.1 | 0.00 | 0.00 | 0.00 | 39 | 1012.7 |
| 20260503214558 | 16 | 267 | 0.0 | 16.1 | 0.00 | 0.00 | 0.00 | 38 | 1012.7 |
| 20260503214054 | 15 | 0 | 1.6 | 16.1 | 0.00 | 0.00 | 0.00 | 40 | 1012.7 |
| 20260503213554 | 15 | 302 | 0.0 | 16.1 | 0.00 | 0.00 | 0.00 | 39 | 1012.7 |
| 20260503213055 | 15 | 269 | 1.6 | 16.1 | 0.00 | 0.00 | 0.00 | 39 | 1012.8 |
| 20260503212553 | 15 | 0 | 1.6 | 19.3 | 0.00 | 0.00 | 0.00 | 38 | 1012.7 |
| 20260503212053 | 15 | 282 | 0.0 | 19.3 | 0.00 | 0.00 | 0.00 | 40 | 1012.6 |
| 20260503211551 | 15 | 241 | 0.0 | 11.3 | 0.00 | 0.00 | 0.00 | 41 | 1012.7 |
| 20260503211052 | 15 | 282 | 0.0 | 24.1 | 0.00 | 0.00 | 0.00 | 38 | 1012.6 |
| 20260503210552 | 15 | 0 | 1.6 | 24.1 | 0.00 | 0.00 | 0.00 | 40 | 1012.7 |
| 20260503210058 | 15 | 289 | 3.2 | 22.5 | 0.00 | 0.00 | 0.00 | 39 | 1012.7 |
| 20260503205554 | 15 | 0 | 1.6 | 19.3 | 0.00 | 0.00 | 0.00 | 39 | 1012.7 |
| 20260503205052 | 15 | 281 | 4.8 | 19.3 | 0.00 | 0.00 | 0.00 | 39 | 1012.6 |
| 20260503204609 | 15 | 296 | 0.0 | 14.5 | 0.00 | 0.00 | 0.00 | 40 | 1012.7 |
| 20260503204051 | 15 | 0 | 0.0 | 19.3 | 0.00 | 0.00 | 0.00 | 38 | 1012.8 |
| 20260503203552 | 15 | 246 | 4.8 | 19.3 | 0.00 | 0.00 | 0.00 | 39 | 1012.8 |
| 20260503203101 | 15 | 267 | 1.6 | 16.1 | 0.00 | 0.00 | 0.00 | 38 | 1012.8 |
| 20260503202553 | 15 | 0 | 0.0 | 9.7 | 0.00 | 0.00 | 0.00 | 41 | 1012.9 |
| 20260503202053 | 15 | 0 | 1.6 | 19.3 | 0.00 | 0.00 | 0.00 | 40 | 1012.9 |
| 20260503201558 | 14 | 311 | 1.6 | 19.3 | 0.00 | 0.00 | 0.00 | 39 | 1012.9 |
| 20260503201052 | 15 | 275 | 1.6 | 19.3 | 0.00 | 0.00 | 0.00 | 38 | 1012.9 |
| 20260503200552 | 14 | 254 | 0.0 | 22.5 | 0.00 | 0.00 | 0.00 | 39 | 1013.1 |
| 20260503200053 | 15 | 285 | 4.8 | 22.5 | 0.00 | 0.00 | 0.00 | 38 | 1013.1 |
| 20260503195552 | 14 | 0 | 3.2 | 22.5 | 0.00 | 0.00 | 0.00 | 38 | 1013.1 |
| 20260503195052 | 14 | 0 | 0.0 | 9.7 | 0.00 | 0.00 | 0.00 | 39 | 1013.1 |
| 20260503194614 | 14 | 42 | 1.6 | 22.5 | 0.00 | 0.00 | 0.00 | 39 | 1013.2 |
| 20260503194052 | 14 | 274 | 1.6 | 22.5 | 0.00 | 0.00 | 0.00 | 39 | 1013.3 |
| 20260503193552 | 14 | 0 | 0.0 | 11.3 | 0.00 | 0.00 | 0.00 | 37 | 1013.3 |
| 20260503193100 | 15 | 286 | 0.0 | 22.5 | 0.00 | 0.00 | 0.00 | 39 | 1013.4 |
| 20260503192551 | 14 | 0 | 3.2 | 22.5 | 0.00 | 0.00 | 0.00 | 39 | 1013.5 |
| 20260503192052 | 14 | 311 | 3.2 | 25.7 | 0.00 | 0.00 | 0.00 | 40 | 1013.4 |
| 20260503191602 | 14 | 306 | 1.6 | 25.7 | 0.00 | 0.00 | 0.00 | 40 | 1013.5 |
| 20260503191052 | 14 | 306 | 3.2 | 27.4 | 0.00 | 0.00 | 0.00 | 40 | 1013.6 |
| 20260503190552 | 14 | 331 | 4.8 | 27.4 | 0.00 | 0.00 | 0.00 | 40 | 1013.6 |
| 20260503190101 | 14 | 291 | 1.6 | 14.5 | 0.00 | 0.00 | 0.00 | 41 | 1013.8 |
| 20260503185551 | 13 | 298 | 1.6 | 14.5 | 0.00 | 0.00 | 0.00 | 40 | 1013.8 |
| 20260503185051 | 13 | 333 | 0.0 | 14.5 | 0.00 | 0.00 | 0.00 | 42 | 1013.7 |
| 20260503184600 | 13 | 316 | 1.6 | 14.5 | 0.00 | 0.00 | 0.00 | 42 | 1013.8 |
| 20260503184052 | 13 | 290 | 1.6 | 25.7 | 0.00 | 0.00 | 0.00 | 41 | 1013.8 |
| 20260503183552 | 13 | 307 | 4.8 | 25.7 | 0.00 | 0.00 | 0.00 | 43 | 1014.0 |
| 20260503183104 | 13 | 269 | 3.2 | 16.1 | 0.00 | 0.00 | 0.00 | 42 | 1014.0 |
| 20260503182551 | 13 | 0 | 1.6 | 22.5 | 0.00 | 0.00 | 0.00 | 45 | 1014.1 |
| 20260503182052 | 13 | 293 | 3.2 | 25.7 | 0.00 | 0.00 | 0.00 | 43 | 1014.0 |
| 20260503181555 | 13 | 315 | 6.4 | 25.7 | 0.00 | 0.00 | 0.00 | 42 | 1014.2 |
| 20260503181052 | 13 | 360 | 6.4 | 25.7 | 0.00 | 0.00 | 0.00 | 43 | 1014.1 |
| 20260503180553 | 13 | 329 | 3.2 | 27.4 | 0.00 | 0.00 | 0.00 | 43 | 1014.2 |
| 20260503180107 | 12 | 0 | 0.0 | 27.4 | 0.00 | 0.00 | 0.00 | 46 | 1014.2 |
| 20260503175552 | 12 | 307 | 3.2 | 27.4 | 0.00 | 0.00 | 0.00 | 45 | 1014.2 |
| 20260503175052 | 12 | 301 | 0.0 | 11.3 | 0.00 | 0.00 | 0.00 | 45 | 1014.4 |
| 20260503174052 | 12 | 0 | 0.0 | 20.9 | 0.00 | 0.00 | 0.00 | 45 | 1014.4 |
| 20260503173552 | 12 | 309 | 1.6 | 20.9 | 0.00 | 0.00 | 0.00 | 43 | 1014.4 |
| 20260503173154 | 12 | 0 | 1.6 | 22.5 | 0.00 | 0.00 | 0.00 | 42 | 1014.5 |
| 20260503172554 | 12 | 339 | 3.2 | 22.5 | 0.00 | 0.00 | 0.00 | 45 | 1014.5 |
| 20260503172051 | 12 | 0 | 1.6 | 14.5 | 0.00 | 0.00 | 0.00 | 44 | 1014.5 |
| 20260503171555 | 12 | 333 | 1.6 | 14.5 | 0.00 | 0.00 | 0.00 | 46 | 1014.6 |
| 20260503171052 | 12 | 0 | 0.0 | 14.5 | 0.00 | 0.00 | 0.00 | 46 | 1014.6 |
| 20260503170552 | 12 | 33 | 0.0 | 17.7 | 0.00 | 0.00 | 0.00 | 46 | 1014.6 |
| 20260503150552 | 10 | 287 | 0.0 | 20.9 | 0.00 | 0.00 | 0.00 | 49 | 1015.4 |
| 20260503131053 | 7 | 333 | 1.6 | 16.1 | 0.00 | 0.00 | 0.00 | 63 | 1015.5 |
| 20260503130553 | 7 | 338 | 1.6 | 24.1 | 0.00 | 0.00 | 0.00 | 61 | 1015.5 |
| 20260503130107 | 7 | 9 | 1.6 | 24.1 | 0.00 | 0.00 | 0.00 | 64 | 1015.4 |